Find Starlink 36432

NORAD ID: 67342 Int'l Des: 2026-003 Owner: SPXS Country: US Constellation: starlink operational
LEOCIRCULAR

Current View

Loading 3D Globe...

About Starlink 36432

Description loading...

Upcoming Passes

Passes for default location (London). Set your location on the main map for personalized predictions.

Altitude History

Loading altitude history...

Two-Line Element Set

1 67342U 26003J 26150.00273052 .00022330 00000-0 81823-3 0 9991
2 67342 43.0010 127.5093 0001796 277.7460 82.3187 15.27591587 21265
Epoch: May 30, 2026 • Age: 10 hours

Current Status

Altitude 485.7 km
Velocity 7.62 km/s
Sub-Earth Point -15.16°S, 81.51°W
Launch Date Jan 9, 2026
Age 0.3 years
Type internet

Technical Details

Classification Payload
Mass 575.00 kg
Dry Mass 530.00 kg
Total Mass 575.00 kg
Length 0.30 m
Diameter 4.10 m
Span 29.00 m
Shape Box + pan
Manufacturer SPXS
Bus Type Starlink V2MO
Phase Status In Orbit
Owner/State SPXS/US

Most Searched